Regional Weather Roundup
Issued by NWS

Home | Current Version | Previous Version | Text Only | Print | Product List | Glossary On
Versions: 1 2 3 4 5 6 7 8 9 10 11 12 13 14 15 16 17 18 19 20 21 22 23 24 25 26 27 28 29 30 31 32 33 34 35 36 37 38 39 40 41 42 43 44 45 46 47 48 49 50
000
ASUS43 KDTX 070301
RWRMI
MICHIGAN HOURLY REGIONAL WEATHER ROUNDUP
NATIONAL WEATHER SERVICE DETROIT/PONTIAC MI
1000 PM EST TUE DEC 06 2016

NOTE: "FAIR" INDICATES FEW OR NO CLOUDS BELOW 12,000 FEET WITH NO
SIGNIFICANT WEATHER AND/OR OBSTRUCTION TO VISIBILITY.

MIZ047>049-052>055-059>063-066>070-074>076-081>083-070400-
SOUTHEAST LOWER MICHIGAN

CITY           SKY/WX    TMP DP  RH WIND       PRES   REMARKS
ADRIAN         CLOUDY    36  33  89 W9        29.83R WCI  29
ALMA           PTCLDY    34  32  92 SW9       29.76R WCI  27
ANN ARBOR      MOCLDY    35  34  96 SW8       29.79R WCI  29
BAD AXE        CLOUDY    36  35  96 SW7       29.72S FOG     WCI  31
CARO           MOCLDY    35  33  95 SW7       29.73R FOG     WCI  29
DETROIT CITY   CLEAR     38  37  97 W6        29.78R WCI  33
DETROIT        CLOUDY    38  36  92 SW9       29.80R WCI  31
FLINT          CLOUDY    37  32  82 W8        29.77R WCI  31
GROSSE ILE     CLEAR     37  35  94 W6        29.79R WCI  32
HILLSDALE      CLOUDY    34  32  93 W13G20    29.81R WCI  25
HOWELL         CLOUDY    36  32  86 W12       29.78R WCI  28

CITY           SKY/WX    TMP DP  RH WIND       PRES   REMARKS
JACKSON        MOCLDY    36  30  79 W12       29.81R WCI  28
LAMBERTVILLE   CLOUDY    39  35  84 W10       29.83R WCI  32
LANSING        CLOUDY    36  29  75 W18       29.80R WCI  26
LAPEER         NOT AVBL
MASON          PTCLDY    36  32  87 W9        29.80R WCI  29
MONROE         CLOUDY    38  36  94 W9        29.80R WCI  31
MT. CLEMENS    MOCLDY    38  38  97 W8        29.74R WCI  32
PONTIAC        MOCLDY    37  34  89 W7        29.75R WCI  32
PORT HOPE        N/A     37  36  96 VRB5      29.69F WCI  33
PORT HURON     CLOUDY    37  37 100 CALM      29.75S FOG
TRI CITIES     PTCLDY    36  33  89 SW13      29.74S WCI  27
MIDLAND        FAIR      36  32  84 SW10      29.73R WCI  29
TROY           CLEAR     38  35  90 SW6       29.79R WCI  33
SAGINAW HB     CLOUDY    36  32  87 SW9       29.74S WCI  29
$$
MIZ043>046-050>051-056>058-064>065-071>073-077>080-070400-
SOUTHWEST LOWER MICHIGAN

CITY           SKY/WX    TMP DP  RH WIND       PRES   REMARKS
BATTLE CREEK   PTCLDY    35  29  78 W17G23    29.83R WCI  25
BENTON HARBOR  CLOUDY    34  25  69 W26G33    29.90R WCI  21
BIG RAPIDS     CLOUDY    36  26  67 W13G20    29.74R WCI  27
COLDWATER      CLOUDY    35  31  85 W13       29.84R WCI  26
FREMONT        CLOUDY    35  22  59 W14G23    29.78R WCI  25
HOLLAND        CLOUDY    36  27  69 W21G31    29.83R WCI  25
GRAND RAPIDS   MOCLDY    35  26  69 W21       29.82R WCI  24
IONIA          FAIR      34  29  82 W14G20    29.78R WCI  24
KALAMAZOO      PTCLDY    35  27  72 W13       29.85R WCI  26
LUDINGTON      CLOUDY    33  25  73 W12G23    29.78R WCI  24
MARSHALL       MOCLDY    35  31  84 W13       29.82R WCI  26
MOUNT PLEASANT CLEAR     35  31  86 W8        29.74R WCI  28
MUSKEGON       CLOUDY    35  24  64 W16G30    29.82R WCI  25
SOUTH HAVEN    MOCLDY    35  26  70 W16G26    29.88R WCI  25
$$
MIZ016>042-070400-
NORTHERN LOWER MICHIGAN

CITY           SKY/WX    TMP DP  RH WIND       PRES   REMARKS
ALPENA         CLEAR     34  31  88 S6        29.66F WCI  29
BEAVER ISLAND  CLOUDY    37  29  73 SW17G32   29.62R WCI  28
BELLAIRE       CLOUDY    37  29  70 SW13G24   29.67R WCI  29
CADILLAC       CLOUDY    33  25  73 W10G20    29.69R WCI  25
CHARLEVOIX     MOCLDY    37  30  74 SW14G26   29.67R WCI  29
FRANKFORT      CLOUDY    34  27  74 W14G25    29.72R WCI  25
GAYLORD        CLOUDY    35  28  75 SW15      29.63S WCI  25
GRAYLING       MOCLDY    35  31  88 SW7       29.67S WCI  29
HARBOR SPRINGS MOCLDY    37  34  87 SW14G22   29.63S WCI  29
HOUGHTON LAKE  PTCLDY    34  30  85 SW9       29.68S WCI  27
MANISTEE       CLOUDY    34  23  64 W15G25    29.75R WCI  24
OSCODA         PTCLDY    37  33  85 SW8       29.68S WCI  31
PELLSTON       LGT RAIN  37  30  75 S9        29.62F WCI  30
ROGERS CITY    PTCLDY    35  32  90 S7        29.65S WCI  29
TRAVERSE CITY  MOCLDY    38  25  59 SW12      29.68R WCI  30
$$
MIZ007>008-015-070400-
EASTERN UPPER MICHIGAN

CITY           SKY/WX    TMP DP  RH WIND       PRES   REMARKS
KINROSS        CLOUDY    36  31  82 S9        29.59S WCI  29
MACKINAC ISLAN CLOUDY    37  31  80 S15G22    29.60S WCI  28
NEWBERRY       MOCLDY    33  32  96 SW10      29.57S WCI  25
S. S. MARIE    CLOUDY    37  31  78 S7        29.57F WCI  32
MUNISING         N/A     32  26  78 SW8       29.59R WCI  25
$$
MIZ004>006-011>014-085-070400-
CENTRAL UPPER MICHIGAN

CITY           SKY/WX    TMP DP  RH WIND       PRES   REMARKS
MANISTIQUE     CLEAR     32  25  74 W9G20     29.61R WCI  24
ESCANABA       CLOUDY    27  19  72 W16G25    29.66R WCI  15
SAWYER-GWINN   CLOUDY    27  18  69 MISG      29.59R
$$
MIZ001>003-009>011-084-070400-
WESTERN UPPER MICHIGAN

CITY           SKY/WX    TMP DP  RH WIND       PRES   REMARKS
IRON MOUNTAIN  CLOUDY    23  14  68 SW15G26   29.64R WCI  10
HOUGHTON       CLOUDY    25  14  63 SW15G23   29.55S WCI  13
COPPER HARBOR    N/A     29  20  69 VRB7      29.55R WCI  22
IRONWOOD       FLURRIES  21  16  81 SW15      29.57S WCI   8
$$

ABBREVIATIONS USED IN REMARKS
   TC - TEMPERATURE IN CELSIUS
  WCI - WIND CHILL INDEX
   HX - HEAT INDEX
  VSB - VISIBILITY





USA.gov is the U.S. government's official web portal to all federal, state and local government web resources and services.